TimeAST,TemperatureF,Dew PointF,Humidity,Sea Level PressureIn,VisibilityMPH,Wind Direction,Wind SpeedMPH,Gust SpeedMPH,PrecipitationIn,Events,Conditions,WindDirDegrees,DateUTC
12:00 AM,82.4,73.4,74,29.92,6.2,ESE,10.4,-,N/A,,Scattered Clouds,120,2012-11-14 04:00:00
1:00 AM,82.4,73.4,74,29.92,6.2,ESE,8.1,-,N/A,,Partly Cloudy,110,2012-11-14 05:00:00
2:00 AM,81,74,75,29.90,7,SE,8.1,,,Rain,Light Rain Showers,130,2012-11-14 06:00:00
2:00 AM,80.6,75.2,84,29.89,6.2,ESE,8.1,-,N/A,Rain,Light Rain Showers,120,2012-11-14 06:00:00
3:00 AM,80.6,73.4,79,29.89,6.2,ESE,12.7,-,N/A,,Mostly Cloudy,110,2012-11-14 07:00:00
4:00 AM,80.6,75.2,84,29.86,6.2,ESE,5.8,-,N/A,,Scattered Clouds,110,2012-11-14 08:00:00
5:00 AM,81,73,72,29.89,16,SE,6.9,,,,Partly Cloudy,130,2012-11-14 09:00:00
5:00 AM,80.6,73.4,79,29.89,6.2,ESE,6.9,-,N/A,,Scattered Clouds,110,2012-11-14 09:00:00
6:00 AM,80.6,73.4,79,29.89,6.2,ESE,10.4,-,N/A,,Scattered Clouds,110,2012-11-14 10:00:00
7:00 AM,82.4,73.4,74,29.92,6.2,ESE,8.1,-,N/A,,Scattered Clouds,110,2012-11-14 11:00:00
8:00 AM,83,74,68,29.95,31,East,8.1,,,,Partly Cloudy,100,2012-11-14 12:00:00
8:00 AM,82.4,73.4,74,29.95,6.2,East,8.1,-,N/A,,Scattered Clouds,100,2012-11-14 12:00:00
9:00 AM,84.2,75.2,74,29.98,6.2,East,6.9,-,N/A,,Mostly Cloudy,80,2012-11-14 13:00:00
10:00 AM,84.2,75.2,74,29.98,6.2,ESE,12.7,-,N/A,,Scattered Clouds,110,2012-11-14 14:00:00
11:00 AM,83,75,71,29.97,12,East,11.5,,,Rain,Light Rain Showers,80,2012-11-14 15:00:00
11:00 AM,82.4,75.2,79,29.95,6.2,East,11.5,-,N/A,Rain,Light Rain Showers,80,2012-11-14 15:00:00
11:21 AM,82.4,75.2,79,29.95,3.1,ENE,11.5,-,N/A,Rain,Rain Showers,70,2012-11-14 15:21:00
12:00 PM,82.4,77.0,84,29.95,6.2,ENE,12.7,-,N/A,Rain,Light Rain Showers,60,2012-11-14 16:00:00
1:00 PM,84.2,75.2,74,29.92,6.2,East,11.5,-,N/A,,Partly Cloudy,100,2012-11-14 17:00:00
2:00 PM,84,73,63,29.90,25,ESE,11.5,,,,Partly Cloudy,120,2012-11-14 18:00:00
2:00 PM,84.2,73.4,70,29.89,6.2,ESE,10.4,-,N/A,,Scattered Clouds,110,2012-11-14 18:00:00
3:00 PM,86.0,73.4,66,29.89,6.2,East,10.4,-,N/A,,Partly Cloudy,100,2012-11-14 19:00:00
4:00 PM,84.2,75.2,74,29.86,6.2,East,11.5,-,N/A,Rain,Light Rain Showers,90,2012-11-14 20:00:00
5:00 PM,83,73,65,29.89,25,ESE,11.5,,,Rain,Light Rain Showers,110,2012-11-14 21:00:00
5:00 PM,82.4,73.4,74,29.89,6.2,East,10.4,-,N/A,,Partly Cloudy,100,2012-11-14 21:00:00
6:00 PM,82.4,73.4,74,29.89,6.2,East,9.2,-,N/A,,Partly Cloudy,90,2012-11-14 22:00:00
7:00 PM,82.4,71.6,70,29.92,6.2,East,9.2,-,N/A,,Partly Cloudy,90,2012-11-14 23:00:00
8:00 PM,82,73,68,29.93,25,East,10.4,,,,Partly Cloudy,90,2012-11-15 00:00:00
8:00 PM,82.4,73.4,74,29.92,6.2,East,10.4,-,N/A,,Partly Cloudy,80,2012-11-15 00:00:00
9:00 PM,82.4,73.4,74,29.92,6.2,East,8.1,-,N/A,,Partly Cloudy,90,2012-11-15 01:00:00
10:00 PM,82.4,73.4,74,29.92,6.2,East,8.1,-,N/A,,Scattered Clouds,100,2012-11-15 02:00:00
11:00 PM,81,73,70,29.94,25,East,10.4,,,,Partly Cloudy,90,2012-11-15 03:00:00
11:00 PM,80.6,73.4,79,29.92,6.2,East,10.4,-,N/A,,Scattered Clouds,90,2012-11-15 03:00:00